User: anonymous   Login
Location: Unspecified
(0.0000°N, 0.0000°E)
Time: 05:20:59
(UTC+00:00)
Language:

TBA - TO BE ASSIGNED - Orbit

View from above orbital plane
View from above orbital plane
View from above satellite
View from above satellite

Ground track
Ground track

The orbit is defined by the following mean orbital elements,

1 68898U          26145.26525296 +.00000000 +00000-0 +70733-3 0 00000
2 68898  97.2860 340.9603 0001511  86.8224 273.3200 15.49218946    02
Epoch (UTC): 25 May 2026 06:21:57
Eccentricity: 0.0001511
inclination: 97.2860°
perigee height: 418 km
apogee height: 420 km
right ascension of ascending node: 340.9603°
argument of perigee: 86.8224°
revolutions per day: 15.49218946
mean anomaly at epoch: 273.3200°

The dashed part of the orbit path shows where the satellite is in the earth's shadow,  

DLR